When you browse on this site, cookies collect data to enhance your experience and personalize the content and advertising you see.
Visit our Privacy Policy to learn more. By continuing to use the site, you agree to this use of cookies and data.
  • In Hungary
  • List of Countries
  • For 7 days
  • Water Temperature
  • Weather Map
  • News
  • Weather Widgets
  • user-avatar
    Login

    Hourly Weather Olsztyn

    Today, 12 November, Tuesday

    Time Temperature Precipitation Wind Pressure Humidity
    00:00 +3°C° 0 mm 4 mps 732 mmHg 82%
    01:00 +3°C° 0 mm 4 mps 732 mmHg 81%
    02:00 +3°C° 0 mm 4 mps 731 mmHg 79%
    03:00 +3°C° 0 mm 3 mps 731 mmHg 78%
    04:00 +3°C° 0 mm 3 mps 731 mmHg 76%
    05:00 +4°C° 0 mm 2 mps 731 mmHg 76%
    06:00 +5°C° 0 mm 2 mps 731 mmHg 76%
    07:00 +6°C° 0 mm 1 mps 731 mmHg 73%
    08:00 +7°C° 0 mm 1 mps 731 mmHg 70%
    09:00 +8°C° 0 mm 1 mps 731 mmHg 67%
    10:00 +8°C° 0 mm 0 mps 731 mmHg 64%
    11:00 +9°C° 0 mm 1 mps 731 mmHg 63%
    12:00 +10°C° 0 mm 1 mps 731 mmHg 62%
    13:00 +9°C° 0 mm 2 mps 731 mmHg 59%
    14:00 +9°C° 0 mm 2 mps 730 mmHg 63%
    15:00 +9°C° 0 mm 2 mps 730 mmHg 68%
    16:00 +8°C° 0 mm 2 mps 730 mmHg 72%
    17:00 +8°C° 1 mm 2 mps 729 mmHg 78%
    18:00 +8°C° 1 mm 2 mps 729 mmHg 84%
    19:00 +7°C° 1 mm 2 mps 729 mmHg 90%
    20:00 +8°C° 0.9 mm 3 mps 728 mmHg 89%
    21:00 +8°C° 0.9 mm 3 mps 728 mmHg 88%
    22:00 +8°C° 0.9 mm 3 mps 727 mmHg 87%
    23:00 +8°C° 0.2 mm 3 mps 727 mmHg 86%

    Tomorrow, 13 November, Wednesday

    Time Temperature Precipitation Wind Pressure Humidity
    00:00 +8°C° 0.2 mm 3 mps 727 mmHg 84%
    01:00 +8°C° 0.2 mm 3 mps 726 mmHg 82%
    02:00 +9°C° 0 mm 3 mps 726 mmHg 82%
    03:00 +9°C° 0 mm 3 mps 726 mmHg 83%
    04:00 +9°C° 0 mm 2 mps 726 mmHg 83%
    05:00 +9°C° 0.5 mm 3 mps 726 mmHg 87%
    06:00 +10°C° 0.5 mm 3 mps 725 mmHg 90%
    07:00 +10°C° 0.5 mm 3 mps 725 mmHg 93%
    08:00 +10°C° 0.5 mm 3 mps 725 mmHg 93%
    09:00 +10°C° 0.5 mm 2 mps 725 mmHg 92%
    10:00 +10°C° 0.5 mm 2 mps 724 mmHg 92%
    11:00 +12°C° 0.2 mm 2 mps 724 mmHg 89%
    12:00 +12°C° 0.2 mm 2 mps 724 mmHg 85%
    13:00 +13°C° 0.2 mm 2 mps 724 mmHg 82%
    14:00 +12°C° 0 mm 2 mps 724 mmHg 83%
    15:00 +12°C° 0 mm 1 mps 724 mmHg 85%
    16:00 +12°C° 0 mm 1 mps 724 mmHg 86%
    17:00 +12°C° 0.6 mm 1 mps 724 mmHg 87%
    18:00 +12°C° 0.6 mm 1 mps 724 mmHg 88%
    19:00 +12°C° 0.6 mm 2 mps 724 mmHg 89%
    20:00 +10°C° 0.2 mm 2 mps 724 mmHg 89%
    21:00 +10°C° 0.2 mm 3 mps 724 mmHg 89%
    22:00 +10°C° 0.2 mm 3 mps 724 mmHg 89%
    23:00 +10°C° 0.1 mm 3 mps 724 mmHg 91%

    Day after tomorrow, 14 November, Thursday

    Time Temperature Precipitation Wind Pressure Humidity
    00:00 +9°C° 0.1 mm 3 mps 725 mmHg 93%
    01:00 +9°C° 0.1 mm 2 mps 725 mmHg 94%
    02:00 +8°C° 0.1 mm 3 mps 726 mmHg 92%
    03:00 +8°C° 0.1 mm 3 mps 726 mmHg 91%
    04:00 +7°C° 0.1 mm 3 mps 727 mmHg 89%
    05:00 +7°C° 0 mm 3 mps 728 mmHg 87%
    06:00 +5°C° 0 mm 3 mps 728 mmHg 85%
    07:00 +5°C° 0 mm 3 mps 729 mmHg 84%
    08:00 +5°C° 0 mm 3 mps 730 mmHg 80%
    09:00 +7°C° 0 mm 2 mps 730 mmHg 76%
    10:00 +7°C° 0 mm 2 mps 731 mmHg 73%
    11:00 +8°C° 0 mm 2 mps 731 mmHg 69%
    12:00 +9°C° 0 mm 1 mps 731 mmHg 66%
    13:00 +10°C° 0 mm 1 mps 731 mmHg 62%
    14:00 +8°C° 0 mm 2 mps 731 mmHg 67%
    15:00 +8°C° 0 mm 2 mps 731 mmHg 71%
    16:00 +8°C° 0 mm 2 mps 731 mmHg 75%
    17:00 +7°C° 0 mm 2 mps 731 mmHg 79%
    18:00 +7°C° 0 mm 3 mps 731 mmHg 82%
    19:00 +7°C° 0 mm 3 mps 732 mmHg 86%
    20:00 +7°C° 0 mm 3 mps 732 mmHg 88%
    21:00 +7°C° 0 mm 3 mps 732 mmHg 91%
    22:00 +7°C° 0 mm 3 mps 731 mmHg 94%
    23:00 +7°C° 0 mm 3 mps 732 mmHg 93%

    15 November, Friday

    Time Temperature Precipitation Wind Pressure Humidity
    00:00 +7°C° 0 mm 3 mps 732 mmHg 93%
    01:00 +7°C° 0 mm 3 mps 732 mmHg 92%
    02:00 +7°C° 0 mm 3 mps 731 mmHg 91%
    03:00 +7°C° 0 mm 3 mps 731 mmHg 89%
    04:00 +7°C° 0 mm 3 mps 731 mmHg 88%
    05:00 +7°C° 0 mm 3 mps 731 mmHg 86%
    06:00 +7°C° 0 mm 3 mps 731 mmHg 84%
    07:00 +7°C° 0 mm 3 mps 732 mmHg 83%
    08:00 +8°C° 0 mm 4 mps 731 mmHg 76%
    09:00 +11°C° 0 mm 4 mps 731 mmHg 71%
    10:00 +12°C° 0 mm 5 mps 731 mmHg 66%
    11:00 +13°C° 0 mm 5 mps 731 mmHg 63%
    12:00 +14°C° 0 mm 5 mps 731 mmHg 61%
    13:00 +16°C° 0 mm 5 mps 731 mmHg 58%
    14:00 +15°C° 0 mm 5 mps 731 mmHg 62%
    15:00 +14°C° 0 mm 5 mps 731 mmHg 67%
    16:00 +13°C° 0 mm 5 mps 731 mmHg 71%
    17:00 +13°C° 0 mm 5 mps 731 mmHg 73%
    18:00 +12°C° 0 mm 5 mps 732 mmHg 74%
    19:00 +12°C° 0 mm 5 mps 732 mmHg 75%
    20:00 +12°C° 0 mm 5 mps 732 mmHg 76%
    21:00 +10°C° 0 mm 5 mps 732 mmHg 77%
    22:00 +11°C° 0 mm 4 mps 732 mmHg 78%
    23:00 +11°C° 0 mm 4 mps 732 mmHg 76%

    16 November, Saturday

    Time Temperature Precipitation Wind Pressure Humidity
    00:00 +11°C° 0 mm 4 mps 732 mmHg 75%
    01:00 +11°C° 0 mm 4 mps 732 mmHg 74%
    02:00 +10°C° 0 mm 5 mps 732 mmHg 73%
    03:00 +10°C° 0 mm 5 mps 732 mmHg 72%
    04:00 +10°C° 0 mm 5 mps 732 mmHg 70%
    05:00 +10°C° 0 mm 5 mps 732 mmHg 71%
    06:00 +10°C° 0 mm 5 mps 732 mmHg 72%
    07:00 +10°C° 0 mm 5 mps 732 mmHg 73%
    08:00 +12°C° 0 mm 5 mps 733 mmHg 70%
    09:00 +13°C° 0 mm 5 mps 733 mmHg 68%
    10:00 +13°C° 0 mm 5 mps 734 mmHg 65%
    11:00 +14°C° 0 mm 4 mps 734 mmHg 64%
    12:00 +14°C° 0 mm 4 mps 734 mmHg 63%
    13:00 +16°C° 0 mm 3 mps 734 mmHg 62%
    14:00 +15°C° 0 mm 2 mps 735 mmHg 66%
    15:00 +14°C° 0 mm 2 mps 735 mmHg 69%
    16:00 +13°C° 0 mm 1 mps 735 mmHg 73%
    17:00 +13°C° 0 mm 1 mps 735 mmHg 74%
    18:00 +13°C° 0 mm 1 mps 736 mmHg 75%
    19:00 +12°C° 0 mm 1 mps 736 mmHg 76%
    20:00 +12°C° 0 mm 1 mps 736 mmHg 77%
    21:00 +12°C° 0 mm 1 mps 736 mmHg 78%
    22:00 +12°C° 0 mm 2 mps 736 mmHg 79%
    23:00 +10°C° 0 mm 2 mps 736 mmHg 80%

    17 November, Sunday

    Time Temperature Precipitation Wind Pressure Humidity
    00:00 +10°C° 0 mm 2 mps 736 mmHg 82%
    01:00 +10°C° 0 mm 3 mps 736 mmHg 83%
    02:00 +9°C° 0 mm 3 mps 735 mmHg 84%
    03:00 +9°C° 0 mm 3 mps 735 mmHg 85%
    04:00 +9°C° 0 mm 3 mps 735 mmHg 85%
    05:00 +9°C° 0 mm 3 mps 734 mmHg 85%
    06:00 +8°C° 0 mm 3 mps 734 mmHg 85%
    07:00 +8°C° 0 mm 3 mps 734 mmHg 85%
    08:00 +8°C° 0 mm 4 mps 734 mmHg 81%
    09:00 +10°C° 0 mm 4 mps 734 mmHg 78%
    10:00 +10°C° 0 mm 4 mps 734 mmHg 74%
    11:00 +11°C° 0 mm 3 mps 734 mmHg 71%
    12:00 +12°C° 0 mm 3 mps 733 mmHg 69%
    13:00 +12°C° 0 mm 3 mps 733 mmHg 66%
    14:00 +12°C° 0 mm 3 mps 733 mmHg 69%
    15:00 +12°C° 0 mm 2 mps 733 mmHg 73%
    16:00 +10°C° 0 mm 2 mps 733 mmHg 76%
    17:00 +10°C° 0 mm 3 mps 733 mmHg 78%
    18:00 +9°C° 0 mm 3 mps 733 mmHg 80%
    19:00 +9°C° 0 mm 3 mps 733 mmHg 82%
    20:00 +8°C° 0 mm 3 mps 733 mmHg 84%
    21:00 +8°C° 0 mm 3 mps 733 mmHg 85%
    22:00 +8°C° 0 mm 3 mps 733 mmHg 87%
    23:00 +7°C° 0 mm 2 mps 733 mmHg 87%
    Show more